Location: Newark
(23.1300°N, 73.6109°E)
Time: 16:24:07
(UTC+00:00)

AO-7 - Pass Details

Date: 13 July 2020
Orbit: 1440 x 1458 km, 101.8° (Epoch: 05 August)

Event Time Altitude Azimuth Distance (km) Brightness Sun altitude
Rises 21:47:28 0° 30° (NNE) 4,563 ? -31.3°
Reaches altitude 10° 21:50:39 10° 40° (NE) 3,582 ? -30.8°
Maximum altitude 21:57:57 33° 101° (ESE) 2,247 ? -29.6°
Enters shadow 22:04:36 12° 160° (SSE) 3,396 ? -28.5°
